Location: Newark
(41.0400°S, 62.7845°W)
Time: 21:13:25
(UTC+00:00)

Courier 1B Rocket - Pass Details

Date: 01 December 2021
Orbit: 920 x 1202 km, 28.2° (Epoch: 24 January)

Event Time Altitude Azimuth Distance (km) Brightness Sun altitude
Rises 15:22:32 0° 315° (NW) 4,037 8.3 69.3°
Reaches altitude 10° 15:25:58 10° 328° (NNW) 3,105 8.0 69.5°
Maximum altitude 15:31:47 23° 17° (NNE) 2,295 7.7 69.9°
Drops below altitude 10° 15:37:39 10° 66° (ENE) 3,138 8.0 70.3°
Sets 15:41:08 0° 79° (E) 4,089 8.4 70.4°
